STARLINK-36663, 67919

Orbit data source: Space-Track

STARLINK-36663, 67919 is a payload satellite owned by SpaceX/Seattle (US) in LEO that was launched on Sun, 22 Feb 2026 UTC via an FALCON 9 launch vehicle from the Air Force Eastern Test Range (AFETR). Payload-class satellites include a variety of spacecraft equipped with specific instruments for various scientific and technological missions. These include communications satellites like Starlink; space stations such as the ISS; scientific satellites like the Hubble; Earth observation satellites from companies like Planet Labs, Umbra, and HawkEye 360; GPS; miniature CubeSats for education and research; and military/defense satellites.

Loading next visibility...
Identifier
67919, 2026-036R
Orbit
LEO
Country
Flag of USUS
Related business
Manufacturer
SpaceX/Seattle
Mission
Operational spacecraft
Bus & Motor
STARLINK V2MO, Unknown motor
Mass
575 kg wet, ~530 kg dry
Launch date (UTC)
2026-02-22 (3 weeks ago)
Launch vehicle
FALCON 9
Launch site
Air Force Eastern Test Range (AFETR)
Object type
Payload
Rocket body
Debris
Shape & HBR
Unknown
Radar Cross Section
RCS unknown

Expand to show TLE details & history
Last TLE update: 14 hours ago

TLE from 14 hours ago
0 STARLINK-36663
1 67919U 26036R   26071.79517667  .00506569  00000-0  23901-2 0  9991
2 67919  42.9984 230.6314 0005185 343.1884  16.8815 15.80899755  4166
Epoch: 2026-03-12T19:05Z
TLE epoch observation values (Epoch: 2026-03-12T19:05:03.264Z)
Latitude
0.00001°
Longitude
133.92787°
Altitude
324.338 km
Speed
7.718 km/s
True Right ascension
15h 22m 31s
True Declination
0° 00' 00"
Sunlit
Object was in full shadow at epoch
Visualization orbit readout
Latitude
Unknown
Longitude
Unknown
Altitude
Unknown
Speed
Unknown
Apparent Right ascension
Unknown
Apparent Declination
Unknown
Sunlit
N/A
Visualization observer readout
Local Sidereal Time
13:05:00
Azimuth
Unknown
Elevation
Unknown
Doppler factor
Unknown
Orbital elements
Apogee altitude
333.363 km
Perigee altitude
326.407 km
Semi-major axis
6,708.022 km
Eccentricity
0.00052
Inclination
42.9984°
RAAN
230.6314°
Arg. of periapsis
343.1884°
True anomaly
16.89876°
Mean anomaly
16.8815°
Eccentric anomaly
16.89013°
Mean motion
3.95049 °/min
Orbital period
91.13 mins
BSTAR
0.0023901
Loading maneuver chart data...
Computing Atmospheric mass density...
Loading historical data...
Loading historical data...
Loading historical data...
Loading historical data...
Loading historical data...
Loading historical data...
Loading historical data...

Documentation

Showing up to 5 results
|